Weather History for Warsaw, IN

Change the Weather History Date:

Thursday, January 16, 2014

  Actual Average Record
Temperature  
Mean Temperature 24 °F -  
Max Temperature 30 °F 30 °F 57 °F (1949)
Min Temperature 17 °F 10 °F -25 °F (1972)
Degree Days  
Heating Degree Days 42    
Moisture  
Dew Point 20 °F    
Average Humidity 83    
Maximum Humidity 93    
Minimum Humidity 64    
Precipitation  
Precipitation 0.02 in - - ()
Sea Level Pressure  
Sea Level Pressure 29.72 in    
Wind  
Wind Speed 9 mph (SSW)    
Max Wind Speed 14 mph    
Max Gust Speed 22 mph    
Visibility 6 miles    
Events Snow    
Averages and records for this station are not official NWS values.
T = Trace of Precipitation, MM = Missing Value Source: NWS Daily Summary

Daily Weather History Graph

Daily Weather History Graph

Search for Another Location

Airport:

Trip Planner

Search our weather history database for the weather conditions in past years. The results will help you decide how hot, cold, wet, or windy it might be!

Date:

Astronomy

Jan. 16, 2014 Rise Set
Actual Time 8:06 AM EST 5:40 PM EST
Civil Twilight 7:36 AM EST 6:10 PM EST
Nautical Twilight 7:02 AM EST 6:44 PM EST
Astronomical Twilight 6:28 AM EST 7:17 PM EST
Moon 6:32 PM EST (1/16) 7:58 AM EST (1/16)
Length of Visible Light 10h 34m
Length of Day
9h 33m
Full, 100% of the Moon is Illuminated
Jan 16
Full
Jan 24
Last Quarter
Jan 30
New
Feb 6
First Quarter
Feb 14
Full

Hourly Weather History & Observations

Time (EST) Temp. Windchill Dew Point Humidity Pressure Visibility Wind Dir Wind Speed Gust Speed Precip Events Conditions
12:15 AM 19.4 °F 7.2 °F 12.2 °F 74% 29.95 in 10.0 mi SW 11.5 mph 16.1 mph N/A Snow Light Snow
12:35 AM 17.6 °F 7.3 °F 10.4 °F 73% 29.95 in 10.0 mi SSW 8.1 mph - N/A   Mostly Cloudy
12:55 AM 17.6 °F 8.2 °F 12.2 °F 79% 29.94 in 10.0 mi SSW 6.9 mph - N/A   Mostly Cloudy
1:15 AM 17.6 °F 10.7 °F 12.2 °F 79% 29.94 in 10.0 mi SSW 4.6 mph - N/A   Overcast
1:35 AM 17.6 °F 5.7 °F 12.2 °F 79% 29.93 in 10.0 mi South 10.4 mph 16.1 mph N/A   Overcast
1:55 AM 17.6 °F 9.3 °F 12.2 °F 79% 29.94 in 10.0 mi SSW 5.8 mph - N/A   Mostly Cloudy
2:15 AM 19.4 °F 9.5 °F 12.2 °F 74% 29.93 in 10.0 mi SSW 8.1 mph - N/A   Scattered Clouds
2:35 AM 19.4 °F 11.5 °F 12.2 °F 74% 29.93 in 10.0 mi SSW 5.8 mph - N/A   Scattered Clouds
2:55 AM 19.4 °F 9.5 °F 12.2 °F 74% 29.91 in 10.0 mi South 8.1 mph - N/A   Mostly Cloudy
3:15 AM 19.4 °F 8.6 °F 12.2 °F 74% 29.90 in 10.0 mi SSW 9.2 mph 16.1 mph N/A   Overcast
3:35 AM 19.4 °F 9.5 °F 12.2 °F 74% 29.88 in 10.0 mi South 8.1 mph - N/A   Overcast
3:55 AM 19.4 °F 10.4 °F 12.2 °F 74% 29.86 in 10.0 mi South 6.9 mph - N/A   Overcast
4:15 AM 19.4 °F 8.6 °F 12.2 °F 74% 29.85 in 10.0 mi SSW 9.2 mph 17.3 mph N/A   Overcast
4:35 AM 19.4 °F 11.5 °F 14.0 °F 80% 29.84 in 10.0 mi South 5.8 mph - N/A   Overcast
4:55 AM 19.4 °F 9.5 °F 14.0 °F 80% 29.82 in 10.0 mi South 8.1 mph 16.1 mph N/A   Overcast
5:15 AM 19.4 °F 9.5 °F 14.0 °F 80% 29.81 in 10.0 mi South 8.1 mph 16.1 mph N/A   Overcast
5:35 AM 19.4 °F 11.5 °F 14.0 °F 80% 29.81 in 10.0 mi South 5.8 mph - N/A   Overcast
5:55 AM 21.2 °F 12.6 °F 14.0 °F 74% 29.80 in 10.0 mi SSW 6.9 mph - N/A Snow Light Snow
6:15 AM 21.2 °F 12.6 °F 14.0 °F 74% 29.79 in 10.0 mi South 6.9 mph - N/A   Overcast
6:35 AM 21.2 °F 10.9 °F 14.0 °F 74% 29.78 in 7.0 mi South 9.2 mph - N/A Snow Light Snow
6:55 AM 21.2 °F 10.9 °F 14.0 °F 74% 29.78 in 7.0 mi SSW 9.2 mph 17.3 mph N/A Snow Light Snow
7:15 AM 21.2 °F 10.9 °F 15.8 °F 80% 29.75 in 7.0 mi South 9.2 mph - N/A Snow Light Snow
7:35 AM 21.2 °F 10.1 °F 15.8 °F 80% 29.74 in 7.0 mi South 10.4 mph - N/A Snow Light Snow
7:55 AM 21.2 °F 16.4 °F 17.6 °F 86% 29.73 in 5.0 mi South 3.5 mph 17.3 mph N/A Snow Light Snow
8:15 AM 21.2 °F 10.9 °F 17.6 °F 86% 29.73 in 1.8 mi SSW 9.2 mph 16.1 mph N/A Snow Light Snow
8:35 AM 21.2 °F 10.9 °F 17.6 °F 86% 29.73 in 2.0 mi South 9.2 mph - N/A Snow Light Snow
8:55 AM 21.2 °F 9.5 °F 19.4 °F 93% 29.72 in 2.0 mi South 11.5 mph 17.3 mph N/A Snow Light Snow
9:15 AM 23.0 °F 13.1 °F 19.4 °F 86% 29.72 in 1.8 mi South 9.2 mph 17.3 mph N/A Snow Light Snow
9:35 AM 23.0 °F 14.7 °F 19.4 °F 86% 29.72 in 0.5 mi South 6.9 mph 16.1 mph N/A Snow Light Snow
9:55 AM 23.0 °F 13.1 °F 19.4 °F 86% 29.71 in 1.0 mi South 9.2 mph 17.3 mph N/A Snow Light Snow
10:15 AM 23.0 °F 14.7 °F 21.2 °F 93% 29.71 in 0.8 mi South 6.9 mph - N/A Snow Light Snow
10:35 AM 23.0 °F 12.4 °F 21.2 °F 93% 29.71 in 0.8 mi SSW 10.4 mph 18.4 mph 0.01 in Snow Light Snow
10:55 AM 23.0 °F 13.9 °F 21.2 °F 93% 29.71 in 0.8 mi South 8.1 mph 16.1 mph 0.01 in Snow Light Snow
11:15 AM 23.0 °F 13.1 °F 21.2 °F 93% 29.70 in 0.8 mi South 9.2 mph - N/A Snow Light Snow
11:35 AM 24.8 °F 16.1 °F 21.2 °F 86% 29.70 in 2.5 mi SSW 8.1 mph 16.1 mph N/A Snow Light Snow
11:55 AM 24.8 °F 15.3 °F 21.2 °F 86% 29.68 in 2.5 mi SSW 9.2 mph 16.1 mph N/A Snow Light Snow
12:15 PM 24.8 °F 16.1 °F 21.2 °F 86% 29.67 in 0.8 mi SSW 8.1 mph 16.1 mph N/A Snow Light Snow
12:35 PM 26.6 °F 16.8 °F 23.0 °F 86% 29.66 in 1.8 mi SSW 10.4 mph 17.3 mph N/A Snow Light Snow
12:55 PM 26.6 °F 19.1 °F 23.0 °F 86% 29.65 in 1.5 mi SSW 6.9 mph 17.3 mph 0.01 in Snow Light Snow
1:15 PM 26.6 °F 17.5 °F 23.0 °F 86% 29.64 in 2.5 mi SSW 9.2 mph 18.4 mph N/A Snow Light Snow
1:35 PM 26.6 °F 17.5 °F 23.0 °F 86% 29.62 in 7.0 mi SSW 9.2 mph 17.3 mph N/A   Overcast
1:55 PM 26.6 °F 16.8 °F 23.0 °F 86% 29.61 in 7.0 mi SSW 10.4 mph 20.7 mph N/A   Overcast
2:15 PM 28.4 °F 18.5 °F 23.0 °F 80% 29.60 in 10.0 mi SSW 11.5 mph 20.7 mph N/A   Overcast
2:35 PM 28.4 °F 20.4 °F 23.0 °F 80% 29.59 in 10.0 mi SSW 8.1 mph 21.9 mph N/A   Overcast
2:55 PM 28.4 °F 19.1 °F 23.0 °F 80% 29.59 in 10.0 mi SSW 10.4 mph 21.9 mph N/A   Overcast
3:55 PM 28.4 °F 18.5 °F 24.8 °F 86% 29.60 in 10.0 mi SSW 11.5 mph 18.4 mph N/A   Overcast
4:15 PM 28.4 °F 20.4 °F 24.8 °F 86% 29.60 in 10.0 mi SSW 8.1 mph 18.4 mph N/A   Overcast
4:35 PM 28.4 °F 19.7 °F 24.8 °F 86% 29.60 in 3.0 mi SSW 9.2 mph 17.3 mph N/A Snow Light Snow
4:55 PM 28.4 °F 19.7 °F 26.6 °F 93% 29.60 in 0.8 mi South 9.2 mph - N/A Snow Light Snow
5:15 PM 28.4 °F 22.2 °F 26.6 °F 93% 29.60 in 3.0 mi SSW 5.8 mph - N/A Snow Light Snow
5:35 PM 28.4 °F 20.4 °F 24.8 °F 86% 29.61 in 5.0 mi South 8.1 mph - N/A Snow Light Snow
5:55 PM 28.4 °F 19.7 °F 26.6 °F 93% 29.62 in 1.5 mi SSW 9.2 mph - N/A Snow Light Snow
6:15 PM 28.4 °F 20.4 °F 26.6 °F 93% 29.62 in 7.0 mi SSW 8.1 mph 16.1 mph N/A Snow Light Snow
6:35 PM 28.4 °F 20.4 °F 26.6 °F 93% 29.62 in 5.0 mi SSW 8.1 mph - N/A Snow Light Snow
6:55 PM 28.4 °F 21.2 °F 26.6 °F 93% 29.62 in 7.0 mi South 6.9 mph - N/A Snow Light Snow
7:15 PM 28.4 °F 20.4 °F 26.6 °F 93% 29.62 in 4.0 mi SSW 8.1 mph - N/A Snow Light Snow
7:35 PM 28.4 °F 22.2 °F 26.6 °F 93% 29.62 in 4.0 mi SSW 5.8 mph - N/A Snow Light Snow
7:55 PM 28.4 °F 21.2 °F 26.6 °F 93% 29.62 in 3.0 mi SSW 6.9 mph - N/A Snow Light Snow
8:15 PM 28.4 °F 20.4 °F 26.6 °F 93% 29.62 in 3.0 mi SSW 8.1 mph - N/A Snow Light Snow
8:35 PM 28.4 °F 22.2 °F 26.6 °F 93% 29.62 in 2.5 mi SSW 5.8 mph - N/A Snow Light Snow
8:55 PM 28.4 °F 20.4 °F 26.6 °F 93% 29.62 in 2.5 mi SW 8.1 mph - N/A Snow Light Snow
9:15 PM 30.2 °F 20.8 °F 28.4 °F 93% 29.63 in 7.0 mi WSW 11.5 mph - N/A Snow Light Snow
9:35 PM 30.2 °F 21.3 °F 26.6 °F 86% 29.64 in 10.0 mi WSW 10.4 mph - N/A   Overcast
9:55 PM 30.2 °F 19.8 °F 26.6 °F 86% 29.65 in 10.0 mi WSW 13.8 mph - N/A   Overcast
10:15 PM 30.2 °F 20.2 °F 21.2 °F 69% 29.65 in 10.0 mi WSW 12.7 mph - N/A   Overcast
10:35 PM 28.4 °F 18.5 °F 19.4 °F 69% 29.66 in 10.0 mi WSW 11.5 mph 19.6 mph N/A   Overcast
10:55 PM 28.4 °F 19.1 °F 19.4 °F 69% 29.66 in 10.0 mi West 10.4 mph - N/A   Overcast
11:15 PM 28.4 °F 18.5 °F 19.4 °F 69% 29.67 in 10.0 mi West 11.5 mph - N/A   Overcast
11:35 PM 28.4 °F 19.1 °F 19.4 °F 69% 29.66 in 10.0 mi West 10.4 mph - N/A   Overcast
11:55 PM 28.4 °F 19.1 °F 17.6 °F 64% 29.67 in 10.0 mi West 10.4 mph - N/A   Overcast